Location: *
(49.2333°S, 177.3500°W)
Time: 23:45:46
(UTC+00:00)

Daily predictions for brighter satellites

Satellite Brightness Start Highest point End
(mag) Time Altitude Azimuth Time Altitude Azimuth Time Altitude Azimuth
RESURS DK-1 2.4 12:03:52 44° N 12:05:00 63° ENE 12:09:10 10° SE
Meteor 2-1 Rocket 4.4 12:03:24 30° NNW 12:06:27 77° WSW 12:12:29 10° S
Cosmos 1908 4.0 12:06:51 33° NE 12:08:00 43° E 12:11:45 10° SSE
Cosmos 2237 Rocket 3.5 12:10:13 10° SSW 12:15:37 39° SE 12:20:56 10° ENE
Cosmos 1092 Rocket 4.2 12:10:13 10° SSW 12:16:25 60° W 12:19:35 29° NNW
ALOS 2 2.6 12:12:07 10° SSE 12:16:36 74° ENE 12:18:18 37° N
SL-16 R/B 3.8 12:13:37 10° SW 12:17:40 20° W 12:19:23 18° WNW
ATLAS 2AS CENTAUR R/B 4.4 12:13:41 10° W 12:18:52 27° SSW 12:23:58 10° SE
Cosmos 1689 Rocket 3.3 12:16:20 10° SSE 12:19:21 34° E 12:19:56 31° ENE
Cosmos 2228 Rocket 3.3 12:17:48 34° NNE 12:19:33 62° E 12:24:00 10° SSE
Cosmos 1666 Rocket 3.9 12:17:12 10° SSW 12:21:41 54° W 12:23:17 35° NNW
Cosmos 1184 Rocket 3.8 12:18:32 10° S 12:21:50 43° ESE 12:23:05 29° NE
Cosmos 2221 3.4 12:22:04 27° NW 12:23:52 41° WSW 12:28:02 10° S
Cosmos 2219 3.6 12:21:11 29° N 12:23:53 54° ENE 12:29:26 10° SE
Cosmos 1151 Rocket 4.3 12:22:52 21° NE 12:24:53 32° E 12:28:47 10° SSE
SAR-Lupe-2 4.1 12:22:31 10° S 12:26:04 49° WSW 12:27:10 35° WNW
CBERS-1 4.2 12:22:55 23° NNE 12:26:11 69° ESE 12:31:21 10° S
IRS-P3 4.1 12:25:33 27° NNE 12:28:35 88° W 12:34:02 10° SSW
ARIANE 5 R/B 3.9 12:24:39 10° NE 12:29:24 36° ESE 12:34:10 10° S
Aureole 3 3.9 12:23:59 10° SSW 12:29:54 79° W 12:32:05 33° N
Cosmos 371 Rocket 3.6 12:25:56 10° SSW 12:30:54 69° ESE 12:34:21 20° NE
PSLV R/B 4.2 12:29:20 33° NNW 12:31:03 48° W 12:35:34 10° SSW
Cosmos 1633 Rocket 3.5 12:28:51 10° SSW 12:33:08 49° W 12:34:39 34° NW
Cosmos 1933 Rocket 3.6 12:29:26 10° S 12:33:59 83° E 12:36:06 31° NNE
NPP 3.6 12:31:29 26° NNE 12:34:43 89° WNW 12:40:14 10° SSW
Coronas F rocket 1.3 12:32:42 10° S 12:35:16 64° ESE 12:35:18 64° E
CZ-4C R/B 3.2 12:35:00 10° S 12:38:51 80° WSW 12:40:08 40° NNW
Cosmos 1340 Rocket 3.8 12:38:14 10° SSW 12:41:53 32° W 12:42:53 28° WNW
Cosmos 389 Rocket 3.7 12:42:55 25° NE 12:44:25 37° E 12:47:55 10° SSE
Cosmos 2297 Rocket 4.1 12:41:00 11° NE 12:44:39 19° E 12:48:35 10° SE
Cosmos 1356 Rocket 3.7 12:40:31 10° SSW 12:44:40 53° W 12:46:10 34° NNW
Cosmos 2227 Rocket 3.6 12:44:40 16° NNE 12:48:04 27° ENE 12:52:48 10° SE
Landsat 5 3.7 12:43:38 10° SSE 12:48:16 72° ENE 12:50:24 31° N
Cosmos 1980 4.0 12:43:46 10° SSW 12:49:29 66° ESE 12:55:09 10° NE
Cosmos 1470 Rocket 3.6 12:45:23 10° SSW 12:49:47 65° W 12:51:41 32° NNW
ARGOS Delta rocket 3.9 12:47:28 23° NNE 12:50:19 72° ESE 12:55:05 10° S
Spot 4 Rocket 4.3 12:49:31 17° NNE 12:53:33 70° ESE 12:58:46 10° S
Cosmos 1763 Rocket 4.2 12:49:31 10° SW 12:54:15 36° WNW 12:56:13 27° NW
Cosmos 2219 Rocket 2.1 12:50:13 10° SSW 12:55:56 82° WNW 13:00:30 16° NNE
Cosmos 1626 3.6 12:53:05 10° SW 12:56:12 24° W 12:57:03 22° WNW
Cosmos 1726 2.8 12:55:23 27° NNE 12:57:06 47° E 13:00:48 10° SSE
Cosmos 1503 Rocket 4.0 12:54:21 28° NNW 12:57:12 81° ENE 13:02:37 10° SSE
NOSS 0 Rocket 3.9 12:51:07 10° SSW 12:57:23 90° W 13:03:38 10° NNE
Cosmos 1328 Rocket 3.8 12:56:02 31° NNW 12:58:03 61° WSW 13:02:31 10° S
Cosmos 2026 Rocket 4.3 12:52:16 10° SSW 12:58:12 51° W 13:01:41 24° NNW
Cosmos 1486 Rocket 4.5 12:57:01 23° NW 13:00:15 56° WSW 13:05:34 10° SSE
Cosmos 2333 Rocket 2.2 12:54:40 10° SSW 13:00:33 89° ESE 13:06:08 11° NNE
Cosmos 1271 Rocket 4.1 13:00:46 21° WNW 13:02:21 28° WSW 13:05:44 10° S
CENTAUR R/B 2.6 12:58:08 10° SW 13:04:05 48° WNW 13:07:45 21° N
Cosmos 841 Rocket 4.3 13:00:25 10° SW 13:05:07 35° WNW 13:07:10 25° NW
CZ-2C R/B 3.3 12:59:53 10° SSE 13:05:46 85° WSW 13:09:14 25° NNW
Cosmos 1300 3.0 13:04:28 29° N 13:06:19 64° E 13:10:14 10° SSE
Cosmos 2279 Rocket 4.1 13:03:48 24° NNW 13:07:41 71° W 13:14:00 10° S
ADEOS 3.6 13:06:50 19° NNE 13:10:42 86° WNW 13:16:03 10° SSW
Cosmos 1354 Rocket 4.1 13:08:14 25° NNW 13:11:22 79° WSW 13:16:46 10° SSE
Cosmos 2266 Rocket 4.1 13:05:19 10° S 13:11:47 81° E 13:17:09 15° NNE
Atlas Centaur 2 4.4 13:19:35 15° N 13:19:35 15° N 13:22:24 10° NNE
Resurs 1-4 Rocket 2.3 13:13:09 13° NNE 13:18:00 77° ESE 13:23:24 10° SSW
AQUA 4.4 13:23:06 24° NNW 13:25:31 41° W 13:30:06 10° SSW
In-Cosmos 22 Rocket 4.3 13:20:34 10° SSW 13:26:18 75° W 13:30:54 17° N
CZ-2D R/B 2.1 13:22:18 13° NNE 13:27:01 88° ESE 13:32:21 10° SSW
SL-16 R/B 2.9 13:22:13 10° SSW 13:27:54 57° SE 13:33:32 10° NE
CZ-4B R/B 2.7 13:25:58 10° S 13:28:48 28° WSW 13:30:06 21° WNW
Cosmos 304 Rocket 4.0 13:24:22 10° SSW 13:29:14 74° ESE 13:34:05 10° NNE
COSMOS 2428 3.8 13:26:33 10° SW 13:31:17 27° WNW 13:33:45 20° NW
Cosmos 1538 Rocket 4.2 13:29:10 10° SSW 13:34:34 78° ESE 13:39:50 10° NNE
Lacrosse 5 2.0 13:30:01 10° WSW 13:35:00 51° NW 13:39:59 10° NNE
Cosmos 2360 Rocket 4.2 13:39:11 10° W 13:40:19 11° W 13:41:28 10° WNW
PSLV R/B 4.4 13:37:23 10° SSE 13:41:30 58° E 13:44:38 17° N
Meteor 2-3 Rocket 3.8 13:36:57 10° SSW 13:42:49 72° W 13:47:59 13° N
RESURS DK-1 4.5 13:40:19 10° W 13:43:29 20° SW 13:46:39 10° S
CZ-2D R/B 4.0 13:42:27 10° NNE 13:46:37 61° ESE 13:50:43 10° S
Cosmos 540 Rocket 4.3 13:45:35 10° SW 13:50:11 33° WNW 13:53:15 18° NNW
Cosmos 1689 Rocket 4.4 13:48:58 10° SSW 13:51:10 17° WSW 13:52:52 12° W
ADEOS II 4.3 13:47:25 10° ENE 13:51:50 27° ESE 13:56:16 10° S
Meteor 1-27 4.3 13:50:46 17° NNW 13:55:21 78° WSW 14:01:16 10° S
Aureole 2 Rocket 2.9 13:51:33 10° SSW 13:55:29 67° ESE 13:59:01 10° NNE
BREEZE-M DEB (TANK) 1.8 13:57:25 29° NW 13:57:48 31° N 14:00:01 10° ENE
Cosmos 2237 Rocket 2.6 13:54:20 10° SW 13:59:47 44° WNW 14:05:08 10° N
Cosmos 44 Rocket 3.9 13:54:54 10° SW 13:59:51 63° SE 14:04:53 10° NE
Cosmos 1892 2.8 13:57:13 10° SSW 14:01:07 62° W 14:04:21 14° N
IRS-1D 4.1 13:57:22 15° NNW 14:01:32 45° W 14:06:45 10° SSW
Cosmos 1151 Rocket 4.3 13:59:43 15° WNW 14:02:28 28° WSW 14:06:15 10° S
IRAS Rocket 4.3 13:58:08 10° N 14:03:45 65° WNW 14:09:24 10° SSW
BREEZE-M DEB (TANK) 2.7 14:01:58 10° W 14:06:53 51° N 14:09:24 10° ENE
Cosmos 2219 4.4 14:03:09 10° WNW 14:08:18 33° SW 14:13:28 10° SSE
ARIANE 5 R/B 3.2 14:04:30 15° NNW 14:08:29 38° W 14:13:24 10° SSW
Cosmos 1680 Rocket 4.2 14:04:57 10° SSW 14:10:18 60° ESE 14:15:34 10° NE
Cosmos 1869 3.9 14:06:42 10° N 14:10:38 55° E 14:14:39 10° SSE
Cosmos 1825 3.3 14:08:24 10° S 14:12:11 45° ESE 14:15:55 10° NNE
Cosmos 389 Rocket 4.5 14:16:58 11° WNW 14:19:29 19° WSW 14:22:17 10° SSW
Cosmos 1777 Rocket 4.4 14:15:36 10° N 14:20:44 64° ENE 14:25:59 10° SSE
Cosmos 2242 Rocket 3.6 14:17:23 11° N 14:21:42 87° WSW 14:26:13 10° S
Cosmos 2082 3.8 14:18:08 13° NW 14:23:13 72° WSW 14:28:58 10° SSE
Cosmos 1603 4.4 14:19:24 10° SSW 14:25:10 61° ESE 14:30:54 10° NE
UNKNOWN OBJECT B 3.3 14:22:07 11° N 14:25:44 42° W 14:29:36 10° SSW
ERS-2 2.2 14:22:33 10° N 14:26:17 66° WNW 14:30:03 10° SSW
Okean O Rocket 1.8 14:22:42 10° NNE 14:27:13 82° ESE 14:31:45 10° SSW
PAYLOAD B 4.4 14:21:55 10° NNE 14:27:30 82° ESE 14:33:07 10° SSW
Cosmos 1862 Rocket 4.1 14:23:20 10° N 14:27:48 62° E 14:32:18 10° SSE
Cosmos 2297 Rocket 2.3 14:22:49 12° NNW 14:28:02 78° WSW 14:33:47 10° SSE
Cosmos 2112 Rocket 4.4 14:23:27 10° SSW 14:28:54 72° ESE 14:34:15 10° NNE
Cosmos 2227 Rocket 2.6 14:26:29 12° NW 14:31:45 58° WSW 14:37:27 10° SSE
Cosmos 1726 4.2 14:30:20 10° WNW 14:32:45 16° WSW 14:35:13 10° SSW
Cosmos 1455 2.5 14:31:00 12° NNW 14:34:29 53° WSW 14:38:17 10° S
Cosmos 1408 2.7 14:31:23 10° S 14:35:11 82° E 14:38:53 10° NNE
Cosmos 2219 Rocket 3.9 14:36:05 10° WSW 14:38:58 14° W 14:41:51 10° NW
Aureole 1 Rocket 4.3 14:36:24 10° SSW 14:42:37 40° W 14:47:24 10° NNW
SL-08 R/B 3.6 14:37:47 10° SSE 14:42:47 76° ENE 14:47:37 10° N
Cosmos 968 Rocket 4.0 14:38:48 10° NW 14:43:53 51° WSW 14:49:02 10° SSE
Cosmos 2333 Rocket 3.8 14:40:25 10° WSW 14:44:00 17° W 14:47:35 10° NW
SL-16 R/B 3.9 14:38:42 10° SSE 14:44:35 38° E 14:50:22 10° NNE
CZ-4B DEB 4.2 14:42:35 10° NNE 14:48:06 79° WNW 14:53:41 10° SSW
Cosmos 1943 4.4 14:47:52 10° SSW 14:53:26 50° SE 14:58:55 10° NE
Cosmos 1733 Rocket 3.5 14:50:01 10° SSW 14:54:21 45° W 14:58:35 10° NNW
GP-B 4.0 14:51:58 10° S 14:56:27 54° E 15:00:51 10° NNE
USA 161 3.9 14:55:09 10° SE 14:57:09 19° E 14:59:04 10° NE
Cosmos 1553 Rocket 4.1 14:51:04 10° NNW 14:57:12 72° W 15:03:27 10° S
Resurs 1-4 Rocket 3.7 14:54:55 10° NW 14:58:28 18° W 15:02:03 10° SW
CZ-4B R/B 3.3 14:56:35 10° N 15:01:51 59° WNW 15:07:11 10° SSW
